Location: Jackson
(42.2460°N, 84.4010°W)
Time: 17:36:01
(UTC-05:00)

BlueWalker 3 - Pass Details

Date: 23 January 2026
Orbit: 450 x 461 km, 53.2° (Epoch: 14 February)

Event Time Altitude Azimuth Distance (km) Brightness Sun altitude
Rises 19:00:33 0° 245° (WSW) 2,448 7.1 -14.8°
Reaches altitude 10° 19:02:43 10° 251° (WSW) 1,578 5.8 -15.2°
Maximum altitude 19:06:10 49° 328° (NNW) 591 2.4 -15.8°
Enters shadow 19:07:53 26° 31° (NNE) 936 2.9 -16.1°
